Weather History for PHLI - June, 2013

Change the Weather History Date:

Sunday, June 23, 2013

  Actual Average Record
Temperature  
Mean Temperature 77 °F 79 °F  
Max Temperature 82 °F 84 °F 88 °F (1959)
Min Temperature 71 °F 73 °F 67 °F (1952)
Degree Days  
Heating Degree Days 0 0  
Month to date heating degree days 0 0  
Since 1 June heating degree days 0 0  
Since 1 July heating degree days 0 0  
Cooling Degree Days 12 14  
Month to date cooling degree days 308 297  
Year to date cooling degree days 1390 1536  
Since 1 June cooling degree days 308 297  
Growing Degree Days 26 (Base 50)    
Moisture  
Dew Point 70 °F    
Average Humidity 78    
Maximum Humidity 87    
Minimum Humidity 69    
Precipitation  
Precipitation 0.06 in 0.06 in 0.40 in (1978)
Month to date precipitation 0.26 1.22  
Year to date precipitation 15.06 17.06  
Snow  
Snow 0.00 in - - ()
Month to date snowfall 0.0  
Since 1 June snowfall 0.0  
Since 1 July snowfall 0.0  
Snow Depth 0.00 in    
Sea Level Pressure  
Sea Level Pressure 30.14 in    
Wind  
Wind Speed 18 mph (NE)    
Max Wind Speed 28 mph    
Max Gust Speed 32 mph    
Visibility 9 miles    
Events Rain    
T = Trace of Precipitation, MM = Missing Value Source: NWS Daily Summary

Daily Weather History Graph

Daily Weather History Graph

Search for Another Location

Airport or City:

Trip Planner

Search our weather history database for the weather conditions in past years. The results will help you decide how hot, cold, wet, or windy it might be!

Date:

Astronomy

Jun. 23, 2013 Rise Set
Actual Time 5:55 AM HST 7:24 PM HST
Civil Twilight 5:30 AM HST 7:49 PM HST
Nautical Twilight 5:00 AM HST 8:18 PM HST
Astronomical Twilight 4:29 AM HST 8:49 PM HST
Moon 7:57 PM HST (6/23) 6:17 AM HST (6/23)
Length of Visible Light 14h 18m
Length of Day
13h 28m
Full, 100% of the Moon is Illuminated
Jun 23
Full
Jun 29
Last Quarter
Jul 7
New
Jul 15
First Quarter
Jul 22
Full

Hourly Weather History & Observations

Time (HST) Temp. Heat Index Dew Point Humidity Pressure Visibility Wind Dir Wind Speed Gust Speed Precip Events Conditions
12:06 AM 73.4 °F - 69.8 °F 88% 30.16 in 10.0 mi NE 20.7 mph - N/A   Mostly Cloudy
12:53 AM 73.9 °F - 69.1 °F 85% 30.14 in 10.0 mi NE 19.6 mph 28.8 mph N/A   Mostly Cloudy
1:36 AM 71.6 °F - 69.8 °F 94% 30.13 in 10.0 mi NE 18.4 mph - 0.00 in Rain Light Rain
1:53 AM 73.0 °F - 70.0 °F 90% 30.12 in 9.0 mi NE 20.7 mph 29.9 mph 0.00 in   Overcast
2:38 AM 75.2 °F - 69.8 °F 83% 30.12 in 10.0 mi ENE 18.4 mph - 0.00 in   Overcast
2:53 AM 73.9 °F - 70.0 °F 87% 30.12 in 10.0 mi NE 18.4 mph - 0.00 in Rain Light Rain
3:53 AM 73.0 °F - 69.1 °F 87% 30.11 in 10.0 mi NE 19.6 mph - 0.00 in   Overcast
4:53 AM 73.0 °F - 69.1 °F 87% 30.10 in 8.0 mi NE 18.4 mph - 0.01 in Rain Light Rain
5:29 AM 73.4 °F - 69.8 °F 88% 30.12 in 10.0 mi NE 19.6 mph 26.5 mph 0.01 in   Mostly Cloudy
5:38 AM 73.4 °F - 69.8 °F 88% 30.12 in 10.0 mi NE 18.4 mph - 0.01 in   Mostly Cloudy
5:53 AM 73.9 °F - 69.1 °F 85% 30.12 in 10.0 mi NE 19.6 mph - 0.01 in   Mostly Cloudy
6:05 AM 73.4 °F - 69.8 °F 88% 30.12 in 10.0 mi ENE 19.6 mph - N/A   Scattered Clouds
6:53 AM 73.0 °F - 68.0 °F 84% 30.13 in 10.0 mi ENE 26.5 mph 32.2 mph N/A   Partly Cloudy
7:29 AM 71.6 °F - 69.8 °F 94% 30.15 in 2.5 mi ENE 23.0 mph 27.6 mph 0.02 in Rain Heavy Rain
7:35 AM 71.6 °F - 69.8 °F 94% 30.15 in 3.0 mi ENE 21.9 mph 28.8 mph 0.02 in Rain Light Rain
7:53 AM 73.9 °F - 68.0 °F 82% 30.14 in 10.0 mi ENE 18.4 mph - 0.02 in   Overcast
8:53 AM 75.0 °F - 70.0 °F 84% 30.15 in 10.0 mi NE 15.0 mph - N/A   Scattered Clouds
9:05 AM 73.4 °F - 69.8 °F 88% 30.16 in 4.0 mi ENE 23.0 mph 31.1 mph 0.01 in Rain Rain
9:14 AM 73.4 °F - 69.8 °F 88% 30.16 in 6.0 mi ENE 16.1 mph 28.8 mph 0.02 in Rain Light Rain
9:53 AM 75.9 °F - 71.1 °F 85% 30.16 in 10.0 mi NE 11.5 mph - 0.02 in   Mostly Cloudy
10:53 AM 77.0 °F - 71.1 °F 82% 30.16 in 8.0 mi NE 12.7 mph - 0.00 in Rain Light Rain
11:01 AM 75.2 °F - 71.6 °F 89% 30.17 in 7.0 mi ENE 17.3 mph 31.1 mph 0.00 in Rain Light Rain
11:04 AM 75.2 °F - 71.6 °F 89% 30.17 in 7.0 mi NE 17.3 mph - 0.00 in Rain Light Rain
11:40 AM 75.2 °F - 71.6 °F 89% 30.17 in 7.0 mi NE 15.0 mph - 0.00 in Rain Light Rain
11:44 AM 77.0 °F - 73.4 °F 89% 30.17 in 10.0 mi ENE 12.7 mph - 0.00 in   Overcast
11:53 AM 78.1 °F - 72.0 °F 81% 30.16 in 10.0 mi ENE 15.0 mph - 0.00 in   Mostly Cloudy
12:02 PM 80.6 °F 84.6 °F 71.6 °F 74% 30.16 in 10.0 mi NE 15.0 mph - N/A   Scattered Clouds
12:25 PM 78.8 °F - 71.6 °F 78% 30.17 in 10.0 mi NE 15.0 mph - N/A   Mostly Cloudy
12:53 PM 79.0 °F - 70.0 °F 74% 30.16 in 10.0 mi NNE 13.8 mph - N/A   Mostly Cloudy
1:39 PM 80.6 °F 83.9 °F 69.8 °F 70% 30.15 in 10.0 mi NE 15.0 mph - N/A   Mostly Cloudy
1:49 PM 80.6 °F 83.9 °F 69.8 °F 70% 30.16 in 10.0 mi ENE 16.1 mph - N/A   Scattered Clouds
1:53 PM 80.1 °F 82.9 °F 69.1 °F 69% 30.15 in 10.0 mi ENE 15.0 mph - N/A   Mostly Cloudy
2:18 PM 80.6 °F 83.2 °F 68.0 °F 65% 30.14 in 10.0 mi ENE 16.1 mph - N/A   Mostly Cloudy
2:53 PM 78.1 °F - 69.1 °F 74% 30.14 in 10.0 mi ENE 18.4 mph - 0.00 in   Mostly Cloudy
3:53 PM 78.1 °F - 69.1 °F 74% 30.12 in 10.0 mi NE 15.0 mph - N/A   Overcast
4:53 PM 75.9 °F - 70.0 °F 82% 30.11 in 10.0 mi NE 16.1 mph - N/A   Overcast
5:51 PM 75.2 °F - 69.8 °F 83% 30.12 in 10.0 mi NE 18.4 mph - 0.01 in   Overcast
5:53 PM 75.0 °F - 70.0 °F 84% 30.11 in 10.0 mi NE 19.6 mph - 0.01 in   Overcast
6:00 PM 75.2 °F - 69.8 °F 83% 30.12 in 10.0 mi NE 16.1 mph - N/A   Overcast
6:32 PM 75.2 °F - 71.6 °F 89% 30.13 in 10.0 mi NE 18.4 mph - 0.00 in   Mostly Cloudy
6:51 PM 73.4 °F - 69.8 °F 88% 30.13 in 10.0 mi NE 17.3 mph - 0.00 in   Scattered Clouds
6:53 PM 73.9 °F - 69.1 °F 85% 30.13 in 10.0 mi NE 17.3 mph - 0.00 in   Scattered Clouds
7:46 PM 73.4 °F - 69.8 °F 88% 30.15 in 5.0 mi NE 20.7 mph 27.6 mph 0.00 in Rain Rain
7:53 PM 73.0 °F - 70.0 °F 90% 30.14 in 4.0 mi NE 16.1 mph - 0.04 in Rain Light Rain
8:34 PM 73.4 °F - 69.8 °F 88% 30.16 in 10.0 mi NE 18.4 mph - 0.00 in   Mostly Cloudy
8:53 PM 73.9 °F - 70.0 °F 87% 30.15 in 10.0 mi ENE 18.4 mph - 0.00 in   Overcast
9:32 PM 73.4 °F - 69.8 °F 88% 30.17 in 10.0 mi NE 17.3 mph - N/A   Mostly Cloudy
9:39 PM 73.4 °F - 69.8 °F 88% 30.17 in 8.0 mi ENE 20.7 mph 25.3 mph N/A   Overcast
9:53 PM 73.0 °F - 70.0 °F 90% 30.16 in 10.0 mi ENE 17.3 mph - 0.00 in   Overcast
10:53 PM 73.9 °F - 70.0 °F 87% 30.16 in 10.0 mi ENE 18.4 mph - N/A   Overcast
11:26 PM 75.2 °F - 69.8 °F 83% 30.17 in 10.0 mi NE 17.3 mph - N/A   Overcast
11:53 PM 75.0 °F - 69.1 °F 82% 30.15 in 10.0 mi NE 16.1 mph - N/A   Mostly Cloudy